Dillon, MT

8:52 AM MDT on October 20, 2017 (GMT -0600)
Dillon

Weather History for KDLN - September, 2013

Change the Weather History Date:

Friday, September 13, 2013

  Actual Average Record
Temperature  
Mean Temperature 64 °F 56 °F  
Max Temperature 81 °F 71 °F 90 °F (1948)
Min Temperature 47 °F 41 °F 22 °F (1974)
Degree Days  
Heating Degree Days 1    
Month to date heating degree days 22  
Since 1 July heating degree days 28  
Cooling Degree Days 0    
Month to date cooling degree days 19  
Year to date cooling degree days 247  
Growing Degree Days 14 (Base 50)    
Moisture  
Dew Point 47 °F    
Average Humidity 58    
Maximum Humidity 86    
Minimum Humidity 29    
Precipitation  
Precipitation 0.06 in 0.03 in 0.50 in (1940)
Month to date precipitation 0.29 0.40  
Year to date precipitation 7.23 8.70  
Snow  
Snow 0.00 in - - ()
Snow Depth 0.00 in    
Sea Level Pressure  
Sea Level Pressure 29.90 in    
Wind  
Wind Speed 6 mph (SSW)    
Max Wind Speed 20 mph    
Max Gust Speed 28 mph    
Visibility 10 miles    
Events Rain    
T = Trace of Precipitation, MM = Missing Value Source: NWS Daily Summary

Daily Weather History Graph

Daily Weather History Graph

Search for Another Location

Airport or City:

Trip Planner

Search our weather history database for the weather conditions in past years. The results will help you decide how hot, cold, wet, or windy it might be!

Date:

Astronomy

Sep. 13, 2013 Rise Set
Actual Time 7:06 AM MDT 7:44 PM MDT
Civil Twilight 6:36 AM MDT 8:14 PM MDT
Nautical Twilight 6:01 AM MDT 8:49 PM MDT
Astronomical Twilight 5:25 AM MDT 9:25 PM MDT
Moon 3:49 PM MDT (9/13) 12:27 AM MDT (9/13)
Length of Visible Light 13h 37m
Length of Day
12h 37m
Waxing Gibbous, 62% of the Moon is Illuminated
Sep 13
Waxing Gibbous
Sep 19
Full
Sep 26
Last Quarter
Oct 4
New
Oct 11
First Quarter

Hourly Weather History & Observations

Time (MDT) Temp. Dew Point Humidity Pressure Visibility Wind Dir Wind Speed Gust Speed Precip Events Conditions
12:53 AM 53.1 °F 45.0 °F 74% 29.99 in 10.0 mi South 5.8 mph - N/A   Clear
1:53 AM 53.1 °F 45.0 °F 74% 29.98 in 10.0 mi South 8.1 mph - N/A   Clear
2:53 AM 55.9 °F 45.0 °F 67% 29.96 in 10.0 mi South 9.2 mph - N/A   Clear
3:53 AM 54.0 °F 44.1 °F 69% 29.96 in 10.0 mi SW 4.6 mph - N/A   Clear
4:53 AM 52.0 °F 44.1 °F 74% 29.96 in 10.0 mi South 8.1 mph - N/A   Clear
5:53 AM 52.0 °F 45.0 °F 77% 29.96 in 10.0 mi South 9.2 mph - N/A   Clear
6:53 AM 51.1 °F 44.1 °F 77% 29.96 in 10.0 mi SSW 5.8 mph - N/A   Clear
7:53 AM 48.0 °F 44.1 °F 86% 29.98 in 10.0 mi SSW 5.8 mph - N/A   Clear
8:53 AM 57.0 °F 46.0 °F 67% 29.95 in 10.0 mi SW 9.2 mph - N/A   Overcast
9:53 AM 60.1 °F 48.0 °F 64% 29.94 in 10.0 mi WSW 8.1 mph - N/A   Overcast
10:53 AM 64.9 °F 46.9 °F 52% 29.93 in 10.0 mi SW 8.1 mph - N/A   Clear
11:53 AM 70.0 °F 46.9 °F 44% 29.89 in 10.0 mi SW 4.6 mph - N/A   Clear
12:53 PM 73.9 °F 46.0 °F 37% 29.84 in 10.0 mi SW 4.6 mph - N/A   Clear
1:53 PM 75.9 °F 46.0 °F 35% 29.81 in 10.0 mi SW 4.6 mph - N/A   Clear
2:53 PM 75.0 °F 46.0 °F 36% 29.79 in 10.0 mi East 4.6 mph - N/A   Clear
3:53 PM 77.0 °F 43.0 °F 30% 29.77 in 10.0 mi Calm Calm - N/A   Clear
4:53 PM 79.0 °F 44.1 °F 29% 29.76 in 10.0 mi NE 3.5 mph - N/A   Partly Cloudy
5:53 PM 72.0 °F 46.0 °F 40% 29.81 in 10.0 mi Variable 5.8 mph - N/A   Overcast
6:24 PM 66.2 °F 50.0 °F 56% 29.97 in 2.5 mi SSW 11.5 mph 16.1 mph 0.05 in Rain Light Rain
6:31 PM 64.4 °F 50.0 °F 59% 29.97 in 10.0 mi West 15.0 mph 24.2 mph 0.05 in Rain Light Rain
6:41 PM 62.6 °F 51.8 °F 68% 29.97 in 10.0 mi West 15.0 mph 24.2 mph 0.05 in   Scattered Clouds
6:53 PM 63.0 °F 52.0 °F 67% 29.86 in 10.0 mi WNW 11.5 mph - 0.05 in   Partly Cloudy
7:53 PM 61.0 °F 51.1 °F 70% 29.88 in 10.0 mi WSW 4.6 mph - N/A   Scattered Clouds
8:53 PM 61.0 °F 48.9 °F 64% 29.87 in 10.0 mi NNE 3.5 mph - N/A   Overcast
9:53 PM 59.0 °F 52.0 °F 78% 29.87 in 10.0 mi SE 4.6 mph - N/A   Overcast
10:53 PM 59.0 °F 51.1 °F 75% 29.87 in 10.0 mi Calm Calm - N/A   Overcast
11:53 PM 57.9 °F 53.1 °F 84% 29.86 in 9.0 mi SE 5.8 mph - 0.01 in Rain Light Rain